,,PA_Meas_PMT16A,,PR_Meas_QMR101_102,,RH_Meas_QMH101,,SR_Meas_QMS101,,TA_Meas_QMH101,,GenWind,,GenWind,
time,status,PA,status,PR,status,RH,status,SR,status,TA,status,DirAvg,status,SpdAvg,
2016-08-01, 00:00:04,VALID,915.411,VALID,0.2,INVALID,112.895,VALID,15.2566,VALID,19.9563,VALID,27,VALID,0,
2016-08-01, 00:01:04,VALID,915.441,VALID,0.4,INVALID,112.88,VALID,17.1906,VALID,19.9563,VALID,28,VALID,0,
2016-08-01, 00:02:04,VALID,915.498,VALID,0.2,INVALID,112.956,VALID,19.4468,VALID,19.8798,VALID,29,VALID,0,
2016-08-01, 00:03:04,VALID,915.514,VALID,0.2,INVALID,112.91,VALID,21.8106,VALID,19.8783,VALID,24,VALID,0,
2016-08-01, 00:04:04,VALID,915.506,VALID,0.2,INVALID,112.849,VALID,23.8519,VALID,19.8993,VALID,8,VALID,0,
2016-08-01, 00:05:04,VALID,915.542,VALID,0,INVALID,112.819,VALID,26.2156,VALID,19.8783,VALID,321,VALID,0,
2016-08-01, 00:06:04,VALID,915.527,VALID,0,INVALID,112.804,VALID,29.1166,VALID,19.8798,VALID,322,VALID,0,
2016-08-01, 00:07:04,VALID,915.533,VALID,0.2,INVALID,112.796,VALID,33.7365,VALID,19.8588,VALID,322,VALID,0,
2016-08-01, 00:08:04,VALID,915.524,VALID,0,INVALID,112.735,VALID,36.4226,VALID,19.8393,VALID,29,VALID,0,
2016-08-01, 00:09:04,VALID,915.538,VALID,0,INVALID,112.743,VALID,38.4639,VALID,19.8408,VALID,38,VALID,0.0121094,
2016-08-01, 00:10:04,VALID,915.546,VALID,0,INVALID,112.705,VALID,39.4309,VALID,19.8603,VALID,37,VALID,1.08203,
2016-08-01, 00:11:04,VALID,915.578,VALID,0,INVALID,112.712,VALID,39.7532,VALID,19.8003,VALID,26,VALID,1.26602,
2016-08-01, 00:12:04,VALID,915.594,VALID,0.2,INVALID,112.941,VALID,38.3565,VALID,19.6443,VALID,10,VALID,1.28125,
2016-08-01, 00:13:04,VALID,915.616,VALID,0,INVALID,112.971,VALID,36.9598,VALID,19.5468,VALID,24,VALID,1.21406,
2016-08-01, 00:14:04,VALID,915.608,VALID,0,INVALID,112.888,VALID,35.3481,VALID,19.5468,VALID,356,VALID,1.12734,
2016-08-01, 00:15:04,VALID,915.615,VALID,0,INVALID,112.872,VALID,32.4472,VALID,19.5078,VALID,6,VALID,1.09023,
2016-08-01, 00:16:04,VALID,915.627,VALID,0,INVALID,112.949,VALID,29.0091,VALID,19.4298,VALID,18,VALID,0.978125,
2016-08-01, 00:17:04,VALID,915.634,VALID,0,INVALID,112.842,VALID,27.6124,VALID,19.4298,VALID,15,VALID,0.408984,
2016-08-01, 00:18:04,VALID,915.625,VALID,0,INVALID,112.743,VALID,28.0421,VALID,19.4898,VALID,2,VALID,1.41484,
2016-08-01, 00:19:04,VALID,915.608,VALID,0,INVALID,112.735,VALID,27.8273,VALID,19.4703,VALID,1,VALID,0.79375,
2016-08-01, 00:20:04,VALID,915.576,VALID,0.2,INVALID,112.727,VALID,27.3975,VALID,19.4703,VALID,355,VALID,0.0878906,
2016-08-01, 00:21:04,VALID,915.509,VALID,0,INVALID,112.666,VALID,26.6454,VALID,19.4703,VALID,293,VALID,0,
2016-08-01, 00:22:04,VALID,915.468,VALID,0,INVALID,112.644,VALID,26.3231,VALID,19.4508,VALID,292,VALID,0,
2016-08-01, 00:23:04,VALID,915.421,VALID,0,INVALID,112.659,VALID,25.571,VALID,19.4118,VALID,289,VALID,0,
2016-08-01, 00:24:04,VALID,915.411,VALID,0,INVALID,112.59,VALID,24.1743,VALID,19.4508,VALID,289,VALID,0,
2016-08-01, 00:25:04,VALID,915.432,VALID,0,INVALID,112.423,VALID,20.7361,VALID,19.5678,VALID,31,VALID,0,
2016-08-01, 00:26:04,VALID,915.422,VALID,0,INVALID,112.308,VALID,20.7361,VALID,19.6638,VALID,21,VALID,0.228516,
2016-08-01, 00:27:04,VALID,915.512,VALID,0,INVALID,112.423,VALID,20.3064,VALID,19.5858,VALID,18,VALID,0,
2016-08-01, 00:28:04,VALID,915.544,VALID,0,INVALID,112.461,VALID,18.9096,VALID,19.5873,VALID,12,VALID,0,
2016-08-01, 00:29:04,VALID,915.566,VALID,0,INVALID,112.491,VALID,17.6203,VALID,19.5483,VALID,2,VALID,0,
2016-08-01, 00:30:04,VALID,915.606,VALID,0,INVALID,112.468,VALID,16.5459,VALID,19.5288,VALID,2,VALID,0,
2016-08-01, 00:31:04,VALID,915.625,VALID,0,INVALID,112.445,VALID,16.0087,VALID,19.5483,VALID,2,VALID,0,
2016-08-01, 00:32:04,VALID,915.647,VALID,0,INVALID,112.407,VALID,15.2566,VALID,19.5483,VALID,1,VALID,0,
2016-08-01, 00:33:04,VALID,915.681,VALID,0,INVALID,112.369,VALID,14.7194,VALID,19.5483,VALID,230,VALID,0,
2016-08-01, 00:34:04,VALID,915.683,VALID,0,INVALID,112.369,VALID,14.5046,VALID,19.5288,VALID,230,VALID,0,
2016-08-01, 00:35:04,VALID,915.725,VALID,0,INVALID,112.331,VALID,14.1822,VALID,19.5288,VALID,230,VALID,0,
2016-08-01, 00:36:04,VALID,915.724,VALID,0,INVALID,112.301,VALID,13.4301,VALID,19.5678,VALID,230,VALID,0,
2016-08-01, 00:37:04,VALID,915.739,VALID,0,INVALID,112.24,VALID,12.6781,VALID,19.6068,VALID,230,VALID,0,
2016-08-01, 00:38:04,VALID,915.776,VALID,0,INVALID,112.186,VALID,12.0334,VALID,19.6638,VALID,230,VALID,0,
2016-08-01, 00:39:04,VALID,915.744,VALID,0,INVALID,112.186,VALID,12.3557,VALID,19.6653,VALID,230,VALID,0,
2016-08-01, 00:40:04,VALID,915.772,VALID,0,INVALID,112.255,VALID,12.8929,VALID,19.5468,VALID,230,VALID,0,
2016-08-01, 00:41:04,VALID,915.807,VALID,0,INVALID,112.232,VALID,13.0004,VALID,19.5858,VALID,229,VALID,0,
2016-08-01, 00:42:04,VALID,915.779,VALID,0,INVALID,112.163,VALID,12.8929,VALID,19.6053,VALID,230,VALID,0,
2016-08-01, 00:43:04,VALID,915.801,VALID,0.2,INVALID,112.118,VALID,12.4632,VALID,19.6443,VALID,230,VALID,0,
2016-08-01, 00:44:04,VALID,915.803,VALID,0,INVALID,112.079,VALID,11.3888,VALID,19.6833,VALID,230,VALID,0,
2016-08-01, 00:45:04,VALID,915.779,VALID,0,INVALID,112.079,VALID,10.6367,VALID,19.6443,VALID,230,VALID,0,
2016-08-01, 00:46:04,VALID,915.777,VALID,0,INVALID,112.057,VALID,10.7441,VALID,19.6653,VALID,230,VALID,0,
2016-08-01, 00:47:04,VALID,915.75,VALID,0,INVALID,112.079,VALID,11.7111,VALID,19.6443,VALID,245,VALID,0,
2016-08-01, 00:48:04,VALID,915.751,VALID,0,INVALID,112.194,VALID,12.1409,VALID,19.4688,VALID,251,VALID,0,
2016-08-01, 00:49:04,VALID,915.746,VALID,0,INVALID,112.247,VALID,12.1409,VALID,19.3908,VALID,251,VALID,0,
2016-08-01, 00:50:04,VALID,915.677,VALID,0,INVALID,112.179,VALID,11.926,VALID,19.3908,VALID,251,VALID,0,
2016-08-01, 00:51:04,VALID,915.677,VALID,0,INVALID,112.156,VALID,11.8185,VALID,19.3908,VALID,251,VALID,0,
2016-08-01, 00:52:04,VALID,915.656,VALID,0.2,INVALID,112.072,VALID,11.4962,VALID,19.4493,VALID,251,VALID,0,
2016-08-01, 00:53:04,VALID,915.654,VALID,0,INVALID,112.026,VALID,11.0664,VALID,19.5093,VALID,251,VALID,0,
2016-08-01, 00:54:04,VALID,915.686,VALID,0,INVALID,111.98,VALID,10.959,VALID,19.5078,VALID,251,VALID,0,
2016-08-01, 00:55:04,VALID,915.689,VALID,0,INVALID,112.003,VALID,10.5292,VALID,19.4703,VALID,251,VALID,0,
2016-08-01, 00:56:04,VALID,915.708,VALID,0,INVALID,111.988,VALID,9.99203,VALID,19.4703,VALID,251,VALID,0,
2016-08-01, 00:57:04,VALID,915.754,VALID,0,INVALID,112.011,VALID,9.34738,VALID,19.4298,VALID,251,VALID,0,
2016-08-01, 00:58:04,VALID,915.785,VALID,0.2,INVALID,111.965,VALID,8.91762,VALID,19.4703,VALID,232,VALID,0,
2016-08-01, 00:59:04,VALID,915.807,VALID,0,INVALID,111.942,VALID,8.27297,VALID,19.4883,VALID,230,VALID,0,
2016-08-01, 01:00:04,VALID,915.855,VALID,0,INVALID,111.912,VALID,7.52088,VALID,19.5483,VALID,230,VALID,0,
2016-08-01, 01:01:04,VALID,915.887,VALID,0,INVALID,111.896,VALID,6.87623,VALID,19.5093,VALID,230,VALID,0,
2016-08-01, 01:02:04,VALID,915.929,VALID,0,INVALID,111.889,VALID,6.23159,VALID,19.4883,VALID,230,VALID,0,
2016-08-01, 01:03:04,VALID,915.963,VALID,0,INVALID,111.851,VALID,5.80182,VALID,19.5273,VALID,230,VALID,0,
2016-08-01, 01:04:04,VALID,916.157,VALID,0,INVALID,111.836,VALID,5.4795,VALID,19.5468,VALID,230,VALID,0,
2016-08-01, 01:05:04,VALID,916.161,VALID,0,INVALID,111.836,VALID,5.15718,VALID,19.5468,VALID,230,VALID,0,
2016-08-01, 01:06:04,VALID,916.989,VALID,0,INVALID,111.866,VALID,4.83485,VALID,19.5078,VALID,230,VALID,0,
2016-08-01, 01:07:04,VALID,914.992,VALID,0,INVALID,111.919,VALID,4.61997,VALID,19.4688,VALID,230,VALID,0,
2016-08-01, 21:47:04,VALID,913.495,VALID,0,INVALID,112.262,VALID,18.3724,VALID,23.1119,VALID,196,VALID,0,
2016-08-01, 21:48:04,INVALID,917.243,VALID,0.2,INVALID,112.362,VALID,20.4138,VALID,22.9753,VALID,196,VALID,0,
2016-08-01, 21:49:04,VALID,913.833,VALID,0,INVALID,114.046,VALID,22.4552,VALID,22.993,VALID,196,VALID,0,
2016-08-01, 21:50:04,VALID,915.368,VALID,0,INVALID,114.115,VALID,25.3561,VALID,22.9557,VALID,194,VALID,0,
2016-08-01, 21:51:04,INVALID,918.491,VALID,0.2,INVALID,114.557,VALID,28.3645,VALID,22.915,VALID,161,VALID,0,
2016-08-01, 21:52:04,VALID,916.6,VALID,0,INVALID,114.366,VALID,29.8686,VALID,22.8972,VALID,155,VALID,0,
2016-08-01, 21:53:04,VALID,915.807,VALID,0,INVALID,114.839,VALID,24.0668,VALID,22.8972,VALID,155,VALID,0,
2016-08-01, 21:54:04,INVALID,912.667,VALID,0,INVALID,115.289,VALID,20.5213,VALID,22.8972,VALID,155,VALID,0,
2016-08-01, 21:55:04,VALID,916.247,VALID,0,INVALID,115.54,VALID,23.0998,VALID,22.8777,VALID,155,VALID,0,
2016-08-01, 21:56:04,VALID,915.168,VALID,0.2,INVALID,115.609,VALID,27.6124,VALID,22.7996,VALID,155,VALID,0,
2016-08-01, 21:57:04,VALID,916.054,VALID,0,INVALID,113.978,VALID,33.6291,VALID,22.5459,VALID,332,VALID,0.14375,
2016-08-01, 21:58:04,VALID,916.218,VALID,0,INVALID,113.597,VALID,31.8026,VALID,22.4287,0,0,0,0,
